Tracking 19847 objects as of 17-Sep-2019
HD Live streaming from Space Station
objects crossing your sky now

COSMOS 1275 DEB

Track COSMOS 1275 DEB now!
10-day predictions


NORAD ID: 42102
Int'l Code: 1981-053PN
Perigee: 907.4 km
Apogee: 1,019.3 km
Inclination: 83.0 °
Period: 104.2 minutes
Semi major axis: 7334 km
RCS: Unknown
Launch date: June 4, 1981
Source: Commonwealth of Independent States (former USSR) (CIS)
Launch site: PLESETSK MISSILE AND SPACE COMPLEX (PKMTR)

Note: This is SATELLITE DEBRIS
aabbcc
Your satellite tracking list
Your tracking list is empty




NASA's NSSDC Master Catalog

Two Line Element Set (TLE):
1 42102U 81053PN  19257.82414046  .00000552  00000-0  48719-3 0  9993
2 42102  83.0102  92.5914 0076248  67.4799 293.4410 13.82163003920241
Source of the keplerian elements: AFSPC